Terminal Aerodrome Forecast
Issued by NWS

Home | Current Version | Previous Version | Text Only | Print | Product List | Glossary On
Versions: 1 2 3 4 5 6 7 8 9 10 11 12 13 14 15 16 17 18
000
FTUS41 KBGM 250536
TAFITH
TAF
KITH 250536Z 2506/2606 14008KT P6SM OVC100
      TEMPO 2509/2512 -SHRA OVC040
     FM251200 13014KT P6SM -RA OVC045
     FM251400 12012KT 4SM -RA BR SCT015 OVC025
     FM251800 13010KT P6SM OVC015
     FM260300 VRB03KT 5SM -SHRA BR OVC008=

USA.gov is the U.S. government's official web portal to all federal, state and local government web resources and services.